Home > Weather > Tilburg > Past weeks

Flag for Netherlands Weather for the Past 2 Weeks in Tilburg, Netherlands

Now
39 °F

Passing clouds.


Feels Like: 35 °F
Forecast: 35 / 44 °F
Wind: 6 mph from Southwest

Location: Gilze-Rijen

Current Time: Feb 11, 2016 at 2:47:35 AM

Latest Report: Feb 11, 2016 at 1:55 AM


Visibility: N/A

Pressure: 29.59 "Hg

Humidity: 93%

Dew point: 37 °F

Location of TilburgLocation

Historic Weather in Tilburg — Graph

°F

Tilburg Temperature Yesterday

Maximum temperature yesterday: 46 °F (at 1:55 PM)
Minimum temperature yesterday: 36 °F (at 11:55 PM)
Average temperature yesterday: 41 °F

High & Low Weather Summary for the Past Weeks

 TemperatureHumidityPressure
High54 °F (Jan 27, 12:04 PM)100% (Jan 31, 1:55 PM)30.30 "Hg (Jan 31, 1:55 PM)
Low36 °F (Feb 4, 11:00 PM)53% (Jan 28, 2:25 PM)28.91 "Hg (Feb 9, 2:25 PM)
Average46 °F83%29.79 "Hg
* Reported Jan 27 1:25 AM — Feb 11 12:55 AM, Tilburg, Weather by CustomWeather, © 2016

Note: Actual official high and low records may vary slightly from our data, if they occured in-between our weather recording intervals... More about our weather records

Advertising

Tilburg Weather History for the Previous 24 Hours

 ConditionsComfort  
Time TempWeatherWind HumidityBarometerVisibility
12:55 AM
Thu, Feb 11
37 °FMostly cloudy.6 mph93%29.56 "HgN/A
11:55 PM
Wed, Feb 10
36 °FChilly.5 mph93%29.56 "HgN/A
11:25 PM37 °FChilly.5 mph93%29.56 "HgN/A
10:55 PM37 °FPassing clouds.5 mph93%29.56 "HgN/A
9:55 PM39 °FPassing clouds.5 mph93%29.53 "HgN/A
9:25 PM39 °FPassing clouds.3 mph93%29.53 "HgN/A
8:55 PM39 °FPartly cloudy.5 mph93%29.50 "HgN/A
8:25 PM41 °FPartly cloudy.5 mph87%29.50 "HgN/A
7:55 PM41 °FOvercast.8 mph87%29.50 "HgN/A
7:25 PM43 °FLight rain. Mostly cloudy.13 mph81%29.47 "HgN/A
7:00 PM41 °FPartly cloudy.7 mph93%29.47 "HgN/A
6:55 PM41 °FLight rain. Passing clouds.6 mph93%29.47 "HgN/A
6:25 PM41 °FDrizzle. Overcast.5 mph93%29.45 "HgN/A
6:04 PM41 °FPassing clouds.5 mph93%29.45 "HgN/A
5:25 PM41 °FLight rain. Broken clouds.8 mph93%29.42 "HgN/A
5:03 PM43 °FMostly cloudy.6 mph87%29.42 "HgN/A
4:59 PM43 °FBroken clouds.7 mph87%29.42 "HgN/A
4:55 PM43 °FDrizzle. Broken clouds.9 mph87%29.42 "HgN/A
4:25 PM43 °FLight rain. Broken clouds.10 mph87%29.39 "HgN/A
3:55 PM43 °FDrizzle. Mostly cloudy.12 mph93%29.36 "HgN/A
3:25 PM45 °FLight rain. Broken clouds.13 mph81%29.36 "HgN/A
3:01 PM45 °FCloudy.12 mph76%29.36 "HgN/A
2:55 PM45 °FCloudy.15 mph76%29.33 "HgN/A
2:25 PM46 °FOvercast.14 mph71%29.33 "HgN/A
2:03 PM46 °FBroken clouds.12 mph76%29.33 "HgN/A
1:55 PM46 °FBroken clouds.13 mph76%29.33 "HgN/A
1:25 PM45 °FOvercast.12 mph81%29.33 "HgN/A
1:03 PM45 °FLight rain. Broken clouds.13 mph76%29.33 "HgN/A
12:55 PM45 °FScattered clouds.14 mph81%29.33 "HgN/A
12:25 PM45 °FPassing clouds.12 mph81%29.30 "HgN/A
11:55 AM45 °FMore clouds than sun.10 mph81%29.30 "HgN/A
11:25 AM45 °FPartly sunny.8 mph87%29.30 "HgN/A
10:55 AM41 °FBroken clouds.8 mph93%29.30 "HgN/A
10:25 AM41 °FPartly sunny.8 mph93%29.27 "HgN/A
10:00 AM39 °FLight rain. Broken clouds.8 mph93%29.27 "Hg4 mi
9:55 AM39 °FMostly cloudy.8 mph93%29.27 "HgN/A
9:25 AM39 °FDrizzle. Broken clouds.8 mph93%29.27 "Hg5 mi
9:02 AM37 °FPartly sunny.10 mph93%29.24 "HgN/A
8:57 AM39 °FBroken clouds.10 mph87%29.24 "HgN/A
8:25 AM39 °FLight rain. Partly sunny.10 mph93%29.24 "HgN/A
7:55 AM39 °FLight rain. Passing clouds.9 mph93%29.24 "Hg6 mi
7:25 AM39 °FFog.9 mph93%29.21 "Hg6 mi
6:55 AM39 °FPartly cloudy.8 mph93%29.21 "Hg5 mi
5:55 AM39 °FSprinkles. Partly cloudy.9 mph93%29.21 "Hg4 mi
5:25 AM39 °FLight rain. Passing clouds.12 mph93%29.21 "Hg4 mi
4:55 AM39 °FLight rain. Passing clouds.12 mph93%29.21 "HgN/A
4:25 AM39 °FLight rain. Overcast.12 mph93%29.21 "Hg5 mi
3:55 AM39 °FLight rain. Partly cloudy.13 mph87%29.21 "HgN/A
3:25 AM37 °FSprinkles. Partly cloudy.10 mph93%29.21 "Hg4 mi
2:55 AM37 °FPartly cloudy.12 mph93%29.21 "HgN/A
2:25 AM37 °FPartly cloudy.13 mph93%29.21 "HgN/A
Weather by CustomWeather, © 2016

See weather overviewHow to use our weather pages